Lake Hood, AK

11:21 PM AKDT on March 24, 2017 (GMT -0800)
Lake Hood

Weather History for PALH - February, 2013

Change the Weather History Date:

Sunday, February 10, 2013

  Actual Average Record
Temperature  
Mean Temperature 34 °F -  
Max Temperature 39 °F 25 °F 45 °F (2004)
Min Temperature 30 °F 15 °F -14 °F (1999)
Degree Days  
Heating Degree Days 30    
Moisture  
Dew Point 30 °F    
Average Humidity 84    
Maximum Humidity 93    
Minimum Humidity 65    
Precipitation  
Precipitation 0.05 in - - ()
Sea Level Pressure  
Sea Level Pressure 29.31 in    
Wind  
Wind Speed 7 mph (SSW)    
Max Wind Speed 24 mph    
Max Gust Speed 38 mph    
Visibility 7 miles    
Events Rain , Snow    
Averages and records for this station are not official NWS values.
T = Trace of Precipitation, MM = Missing Value Source: NWS Daily Summary

Daily Weather History Graph

Daily Weather History Graph

Search for Another Location

Airport or City:

Trip Planner

Search our weather history database for the weather conditions in past years. The results will help you decide how hot, cold, wet, or windy it might be!

Date:

Astronomy

Feb. 10, 2013 Rise Set
Actual Time 8:55 AM AKST 5:34 PM AKST
Civil Twilight 8:08 AM AKST 6:21 PM AKST
Nautical Twilight 7:17 AM AKST 7:12 PM AKST
Astronomical Twilight 6:27 AM AKST 8:02 PM AKST
Moon 8:25 AM AKST (2/10) 7:09 PM AKST (2/10)
Length of Visible Light 10h 12m
Length of Day
8h 39m
New Moon, 0% of the Moon is Illuminated
Feb 10
New Moon
Feb 17
First Quarter
Feb 25
Full
Mar 4
Last Quarter
Mar 11
New

Hourly Weather History & Observations

Time (AKST) Temp. Windchill Dew Point Humidity Pressure Visibility Wind Dir Wind Speed Gust Speed Precip Events Conditions
12:53 AM 30.0 °F - 27.0 °F 88% 29.00 in 10.0 mi Calm Calm - N/A   Mostly Cloudy
1:53 AM 32.0 °F 27.5 °F 28.0 °F 85% 28.99 in 10.0 mi WNW 4.6 mph - N/A   Overcast
3:53 AM 30.9 °F - 28.0 °F 89% 28.99 in 10.0 mi Calm Calm - N/A   Overcast
4:53 AM 32.0 °F - 28.0 °F 85% 29.00 in 10.0 mi Calm Calm - N/A   Overcast
5:53 AM 30.9 °F 27.5 °F 28.0 °F 89% 29.01 in 10.0 mi NW 3.5 mph - N/A   Overcast
6:53 AM 32.0 °F - 28.0 °F 85% 29.04 in 10.0 mi Calm Calm - N/A   Overcast
7:53 AM 39.0 °F 28.3 °F 30.9 °F 73% 29.10 in 9.0 mi South 24.2 mph 38.0 mph 0.00 in Rain Light Rain
8:13 AM 35.6 °F 25.2 °F 33.8 °F 93% 29.12 in 4.0 mi South 18.4 mph 27.6 mph 0.03 in Rain Rain
8:53 AM 37.9 °F 29.2 °F 35.1 °F 89% 29.17 in 10.0 mi South 15.0 mph 35.7 mph 0.03 in   Overcast
9:28 AM 35.6 °F 24.8 °F 33.8 °F 93% 29.19 in 10.0 mi South 19.6 mph 36.8 mph 0.00 in   Overcast
9:53 AM 37.0 °F 27.0 °F 34.0 °F 89% 29.22 in 10.0 mi South 18.4 mph 28.8 mph 0.00 in   Overcast
10:53 AM 37.9 °F 29.2 °F 27.0 °F 65% 29.26 in 10.0 mi South 15.0 mph 23.0 mph N/A   Overcast
11:53 AM 37.9 °F 30.5 °F 28.9 °F 70% 29.30 in 10.0 mi South 11.5 mph - N/A   Overcast
12:53 PM 37.9 °F 32.7 °F 27.0 °F 65% 29.33 in 10.0 mi South 6.9 mph - N/A   Overcast
1:53 PM 37.9 °F 30.9 °F 28.9 °F 70% 29.35 in 10.0 mi SSW 10.4 mph - 0.00 in   Overcast
2:02 PM 37.4 °F 29.8 °F 30.2 °F 75% 29.34 in 7.0 mi SW 11.5 mph - 0.00 in Snow Light Snow
2:10 PM 37.4 °F 30.8 °F 30.2 °F 75% 29.35 in 9.0 mi SW 9.2 mph - 0.00 in Rain Light Rain
2:53 PM 37.9 °F 30.5 °F 30.0 °F 73% 29.35 in 10.0 mi SSW 11.5 mph 18.4 mph 0.00 in   Overcast
3:53 PM 36.0 °F 29.0 °F 30.0 °F 79% 29.37 in 10.0 mi SW 9.2 mph 23.0 mph 0.00 in Rain Light Rain
4:53 PM 34.0 °F 31.0 °F 30.9 °F 89% 29.40 in 9.0 mi WSW 3.5 mph - 0.00 in Snow Light Snow
5:53 PM 35.1 °F 31.0 °F 30.0 °F 82% 29.41 in 10.0 mi Variable 4.6 mph - 0.00 in   Overcast
6:53 PM 35.1 °F 26.9 °F 28.9 °F 78% 29.42 in 10.0 mi South 11.5 mph 19.6 mph N/A   Overcast
7:53 PM 34.0 °F 26.0 °F 30.0 °F 85% 29.43 in 10.0 mi South 10.4 mph - N/A   Overcast
8:04 PM 33.8 °F 25.3 °F 30.2 °F 87% 29.43 in 10.0 mi South 11.5 mph - N/A   Overcast
8:36 PM 33.8 °F 26.4 °F 30.2 °F 87% 29.44 in 3.0 mi SW 9.2 mph - 0.00 in Snow Light Snow
8:43 PM 33.8 °F 25.8 °F 30.2 °F 87% 29.44 in 2.0 mi SW 10.4 mph 17.3 mph 0.00 in Snow Light Snow
8:53 PM 33.1 °F 25.5 °F 30.9 °F 92% 29.45 in 1.5 mi SW 9.2 mph - 0.00 in Snow Light Snow
9:14 PM 33.8 °F 27.0 °F 30.2 °F 87% 29.45 in 1.0 mi SW 8.1 mph - 0.00 in Snow Light Snow
9:34 PM 32.0 °F 23.6 °F 30.2 °F 93% 29.46 in 1.0 mi SSW 10.4 mph - 0.01 in Snow Light Snow
9:48 PM 32.0 °F 24.2 °F 30.2 °F 93% 29.47 in 1.0 mi SW 9.2 mph - 0.01 in Snow Light Snow
9:53 PM 32.0 °F 24.2 °F 30.0 °F 92% 29.47 in 1.0 mi SW 9.2 mph - 0.01 in Snow Light Snow
10:43 PM 32.0 °F 25.6 °F 30.2 °F 93% 29.48 in 1.0 mi SW 6.9 mph - 0.01 in Snow Light Snow
10:53 PM 32.0 °F 26.4 °F 28.9 °F 88% 29.49 in 1.0 mi SW 5.8 mph - 0.01 in Snow Light Snow
11:33 PM 32.0 °F 28.7 °F 30.2 °F 93% 29.49 in 1.0 mi Variable 3.5 mph - 0.00 in Snow Light Snow
11:53 PM 32.0 °F 26.4 °F 30.0 °F 92% 29.50 in 1.0 mi South 5.8 mph - 0.00 in Snow Light Snow